Terminal Aerodrome Forecast
Issued by NWS

Home | Current Version | Previous Version | Text Only | Print | Product List | Glossary On
Versions: 1 2 3 4 5 6 7 8 9 10 11 12 13 14 15 16 17 18 19 20 21 22 23 24 25 26 27 28 29 30 31 32 33 34 35 36 37 38 39 40 41 42 43 44 45 46 47 48 49 50
000
FTUS44 KLIX 050225 AAA
TAFASD
TAF AMD
KASD 050225Z 0502/0524 VRB03KT P6SM SCT015
      TEMPO 0502/0506 BKN015
     FM051500 24006KT P6SM SCT035 PROB30 0519/0524 2SM TSRA
      BKN030CB=

USA.gov is the U.S. government's official web portal to all federal, state and local government web resources and services.